| time (UTC) | temp F | wind direction | speed MPH | gust MPH | rain 1hr in | rain 24hr in | rain mn in | humidity % | barometer mb |
| 20260508173506 | 54 | 349 | 2.0 | 6.0 | 0.00 | 0.00 | 0.00 | 57 | 1017.6 |
| 20260508173020 | 54 | 350 | 2.0 | 9.0 | 0.00 | 0.00 | 0.00 | 56 | 1017.4 |
| 20260508172506 | 54 | 264 | 2.0 | 9.0 | 0.00 | 0.00 | 0.00 | 57 | 1017.4 |
| 20260508172009 | 55 | 352 | 2.0 | 9.0 | 0.00 | 0.00 | 0.00 | 57 | 1017.3 |
| 20260508171505 | 55 | 65 | 3.0 | 7.0 | 0.00 | 0.00 | 0.00 | 57 | 1017.3 |
| 20260508171004 | 55 | 276 | 2.0 | 7.0 | 0.00 | 0.00 | 0.00 | 58 | 1017.2 |
| 20260508170504 | 55 | 344 | 2.0 | 7.0 | 0.00 | 0.00 | 0.00 | 58 | 1017.1 |
| 20260508165503 | 55 | 278 | 2.0 | 7.0 | 0.00 | 0.00 | 0.00 | 59 | 1016.8 |
| 20260508164513 | 54 | 13 | 1.0 | 8.0 | 0.00 | 0.00 | 0.00 | 59 | 1016.8 |
| 20260508164006 | 54 | 281 | 1.0 | 8.0 | 0.00 | 0.00 | 0.00 | 59 | 1016.7 |
| 20260508163505 | 54 | 340 | 2.0 | 6.0 | 0.00 | 0.00 | 0.00 | 59 | 1016.7 |
| 20260508163018 | 54 | 278 | 2.0 | 6.0 | 0.00 | 0.00 | 0.00 | 59 | 1016.5 |
| 20260508162507 | 55 | 98 | 2.0 | 5.0 | 0.00 | 0.00 | 0.00 | 58 | 1016.5 |
| 20260508161520 | 54 | 335 | 2.0 | 6.0 | 0.00 | 0.00 | 0.00 | 59 | 1016.5 |
| 20260508161008 | 55 | 326 | 2.0 | 6.0 | 0.00 | 0.00 | 0.00 | 59 | 1016.4 |
| 20260508160503 | 55 | 254 | 2.0 | 6.0 | 0.00 | 0.00 | 0.00 | 59 | 1016.3 |
| 20260508155504 | 56 | 305 | 2.0 | 7.0 | 0.00 | 0.00 | 0.00 | 58 | 1016.4 |
| 20260508155004 | 56 | 330 | 2.0 | 8.0 | 0.00 | 0.00 | 0.00 | 59 | 1016.2 |
| 20260508154510 | 56 | 338 | 3.0 | 8.0 | 0.00 | 0.00 | 0.00 | 59 | 1016.2 |
| 20260508154006 | 56 | 28 | 3.0 | 8.0 | 0.00 | 0.00 | 0.00 | 58 | 1016.1 |
| 20260508153503 | 56 | 353 | 3.0 | 8.0 | 0.00 | 0.00 | 0.00 | 59 | 1016.0 |
| 20260508153010 | 57 | 293 | 3.0 | 8.0 | 0.00 | 0.00 | 0.00 | 57 | 1016.0 |
| 20260508152509 | 57 | 295 | 2.0 | 8.0 | 0.00 | 0.00 | 0.00 | 58 | 1015.9 |
| 20260508152007 | 56 | 304 | 3.0 | 8.0 | 0.00 | 0.00 | 0.00 | 59 | 1015.9 |
| 20260508151514 | 56 | 54 | 3.0 | 7.0 | 0.00 | 0.00 | 0.00 | 58 | 1015.8 |
| 20260508151002 | 56 | 20 | 2.0 | 7.0 | 0.00 | 0.00 | 0.00 | 59 | 1015.8 |
| 20260508150502 | 56 | 44 | 2.0 | 10.0 | 0.00 | 0.00 | 0.00 | 57 | 1015.7 |
| 20260508150004 | 57 | 248 | 4.0 | 10.0 | 0.00 | 0.00 | 0.00 | 52 | 1015.5 |
| 20260508145504 | 58 | 6 | 3.0 | 11.0 | 0.00 | 0.00 | 0.00 | 52 | 1015.6 |
| 20260508145002 | 58 | 319 | 4.0 | 13.0 | 0.00 | 0.00 | 0.00 | 52 | 1015.5 |
| 20260508144503 | 58 | 237 | 3.0 | 13.0 | 0.00 | 0.00 | 0.00 | 54 | 1015.4 |
| 20260508144003 | 58 | 338 | 4.0 | 14.0 | 0.00 | 0.00 | 0.00 | 54 | 1015.5 |
| 20260508143505 | 57 | 180 | 4.0 | 14.0 | 0.00 | 0.00 | 0.00 | 53 | 1015.5 |
| 20260508143008 | 58 | 281 | 5.0 | 13.0 | 0.00 | 0.00 | 0.00 | 51 | 1015.4 |
| 20260508142503 | 59 | 239 | 4.0 | 8.0 | 0.00 | 0.00 | 0.00 | 52 | 1015.4 |
| 20260508142003 | 58 | 268 | 5.0 | 8.0 | 0.00 | 0.00 | 0.00 | 52 | 1015.3 |
| 20260508141516 | 58 | 98 | 3.0 | 11.0 | 0.00 | 0.00 | 0.00 | 54 | 1015.2 |
| 20260508141006 | 58 | 10 | 4.0 | 11.0 | 0.00 | 0.00 | 0.00 | 52 | 1015.1 |
| 20260508140507 | 58 | 340 | 2.0 | 12.0 | 0.00 | 0.00 | 0.00 | 54 | 1015.1 |
| 20260508140019 | 57 | 297 | 3.0 | 13.0 | 0.00 | 0.00 | 0.00 | 55 | 1015.0 |
| 20260508135510 | 57 | 314 | 4.0 | 13.0 | 0.00 | 0.00 | 0.00 | 53 | 1015.0 |
| 20260508135002 | 58 | 200 | 3.0 | 9.0 | 0.00 | 0.00 | 0.00 | 54 | 1014.9 |
| 20260508134508 | 57 | 283 | 4.0 | 10.0 | 0.00 | 0.00 | 0.00 | 55 | 1014.9 |
| 20260508134004 | 57 | 263 | 3.0 | 10.0 | 0.00 | 0.00 | 0.00 | 55 | 1014.8 |
| 20260508133504 | 57 | 243 | 4.0 | 10.0 | 0.00 | 0.00 | 0.00 | 53 | 1014.8 |
| 20260508133014 | 57 | 294 | 4.0 | 8.0 | 0.00 | 0.00 | 0.00 | 51 | 1014.6 |
| 20260508132504 | 58 | 283 | 3.0 | 9.0 | 0.00 | 0.00 | 0.00 | 53 | 1014.5 |
| 20260508132003 | 58 | 309 | 3.0 | 9.0 | 0.00 | 0.00 | 0.00 | 52 | 1014.6 |
| 20260508131508 | 58 | 221 | 3.0 | 7.0 | 0.00 | 0.00 | 0.00 | 52 | 1014.5 |
| 20260508131004 | 57 | 260 | 3.0 | 13.0 | 0.00 | 0.00 | 0.00 | 51 | 1014.5 |
| 20260508130503 | 57 | 231 | 3.0 | 14.0 | 0.00 | 0.00 | 0.00 | 49 | 1014.5 |
| 20260508130017 | 57 | 307 | 5.0 | 14.0 | 0.00 | 0.00 | 0.00 | 48 | 1014.4 |
| 20260508125508 | 57 | 291 | 5.0 | 12.0 | 0.00 | 0.00 | 0.00 | 49 | 1014.4 |
| 20260508125007 | 57 | 334 | 5.0 | 11.0 | 0.00 | 0.00 | 0.00 | 51 | 1014.3 |
| 20260508124515 | 57 | 297 | 2.0 | 10.0 | 0.00 | 0.00 | 0.00 | 54 | 1014.2 |
| 20260508124012 | 57 | 288 | 3.0 | 10.0 | 0.00 | 0.00 | 0.00 | 52 | 1014.3 |
| 20260508123503 | 57 | 299 | 3.0 | 10.0 | 0.00 | 0.00 | 0.00 | 52 | 1014.2 |
| 20260508123004 | 58 | 7 | 5.0 | 10.0 | 0.00 | 0.00 | 0.00 | 51 | 1014.2 |
| 20260508122506 | 58 | 302 | 3.0 | 6.0 | 0.00 | 0.00 | 0.00 | 50 | 1014.1 |
| 20260508122004 | 58 | 266 | 3.0 | 9.0 | 0.00 | 0.00 | 0.00 | 50 | 1014.0 |
| 20260508121523 | 57 | 248 | 3.0 | 9.0 | 0.00 | 0.00 | 0.00 | 50 | 1014.0 |
| 20260508121004 | 57 | 249 | 4.0 | 9.0 | 0.00 | 0.00 | 0.00 | 52 | 1014.0 |
| 20260508120507 | 57 | 331 | 5.0 | 9.0 | 0.00 | 0.00 | 0.00 | 50 | 1014.0 |
| 20260508120013 | 57 | 262 | 4.0 | 8.0 | 0.00 | 0.00 | 0.00 | 51 | 1013.9 |
| 20260508115505 | 57 | 280 | 3.0 | 10.0 | 0.00 | 0.00 | 0.00 | 52 | 1013.9 |
| 20260508115005 | 57 | 99 | 3.0 | 10.0 | 0.00 | 0.00 | 0.00 | 51 | 1013.8 |
| 20260508114515 | 57 | 49 | 3.0 | 10.0 | 0.00 | 0.00 | 0.00 | 49 | 1013.7 |
| 20260508113507 | 56 | 288 | 4.0 | 10.0 | 0.00 | 0.00 | 0.00 | 50 | 1013.6 |
| 20260508113021 | 56 | 303 | 2.0 | 14.0 | 0.00 | 0.00 | 0.00 | 50 | 1013.6 |
| 20260508112507 | 57 | 297 | 3.0 | 14.0 | 0.00 | 0.00 | 0.00 | 52 | 1013.6 |
| 20260508112008 | 56 | 298 | 3.0 | 10.0 | 0.00 | 0.00 | 0.00 | 53 | 1013.5 |
| 20260508111504 | 56 | 205 | 4.0 | 11.0 | 0.00 | 0.00 | 0.00 | 54 | 1013.5 |
| 20260508111004 | 55 | 308 | 3.0 | 11.0 | 0.00 | 0.00 | 0.00 | 54 | 1013.4 |
| 20260508110503 | 55 | 70 | 5.0 | 11.0 | 0.00 | 0.00 | 0.00 | 52 | 1013.4 |
| 20260508110010 | 56 | 227 | 3.0 | 11.0 | 0.00 | 0.00 | 0.00 | 54 | 1013.5 |
| 20260508105509 | 56 | 238 | 3.0 | 10.0 | 0.00 | 0.00 | 0.00 | 55 | 1013.4 |
| 20260508105005 | 55 | 245 | 2.0 | 10.0 | 0.00 | 0.00 | 0.00 | 55 | 1013.4 |
| 20260508104511 | 55 | 204 | 3.0 | 11.0 | 0.00 | 0.00 | 0.00 | 54 | 1013.3 |
| 20260508104007 | 55 | 251 | 4.0 | 11.0 | 0.00 | 0.00 | 0.00 | 55 | 1013.2 |
| 20260508103504 | 55 | 266 | 3.0 | 11.0 | 0.00 | 0.00 | 0.00 | 55 | 1013.2 |
| 20260508103018 | 55 | 8 | 5.0 | 11.0 | 0.00 | 0.00 | 0.00 | 56 | 1013.2 |
| 20260508102508 | 55 | 278 | 3.0 | 11.0 | 0.00 | 0.00 | 0.00 | 58 | 1013.2 |
| 20260508102008 | 54 | 188 | 4.0 | 11.0 | 0.00 | 0.00 | 0.00 | 58 | 1013.1 |
| 20260508101520 | 53 | 218 | 3.0 | 11.0 | 0.00 | 0.00 | 0.00 | 60 | 1013.1 |
| 20260508101013 | 53 | 252 | 6.0 | 11.0 | 0.00 | 0.00 | 0.00 | 59 | 1013.1 |
| 20260508100507 | 54 | 172 | 5.0 | 11.0 | 0.00 | 0.00 | 0.00 | 59 | 1013.2 |
| 20260508100006 | 53 | 293 | 2.0 | 11.0 | 0.00 | 0.00 | 0.00 | 60 | 1013.1 |
| 20260508095503 | 53 | 221 | 4.0 | 11.0 | 0.00 | 0.00 | 0.00 | 59 | 1013.1 |
| 20260508095002 | 53 | 342 | 2.0 | 9.0 | 0.00 | 0.00 | 0.00 | 58 | 1013.1 |
| 20260508094508 | 53 | 248 | 1.0 | 13.0 | 0.00 | 0.00 | 0.00 | 60 | 1013.1 |
| 20260508094003 | 52 | 45 | 4.0 | 13.0 | 0.00 | 0.00 | 0.00 | 59 | 1013.0 |
| 20260508093502 | 52 | 253 | 4.0 | 14.0 | 0.00 | 0.00 | 0.00 | 59 | 1012.9 |
| 20260508093002 | 52 | 255 | 6.0 | 15.0 | 0.00 | 0.00 | 0.00 | 59 | 1012.8 |
| 20260508092502 | 52 | 200 | 4.0 | 15.0 | 0.00 | 0.00 | 0.00 | 60 | 1012.8 |
| 20260508092003 | 52 | 147 | 4.0 | 14.0 | 0.00 | 0.00 | 0.00 | 60 | 1012.6 |
| 20260508091508 | 52 | 274 | 6.0 | 15.0 | 0.00 | 0.00 | 0.00 | 61 | 1012.5 |
| 20260508091002 | 52 | 204 | 7.0 | 15.0 | 0.00 | 0.00 | 0.00 | 61 | 1012.5 |
| 20260508090503 | 52 | 248 | 4.0 | 12.0 | 0.00 | 0.00 | 0.00 | 61 | 1012.7 |
| 20260508090005 | 52 | 223 | 4.0 | 9.0 | 0.00 | 0.00 | 0.00 | 61 | 1012.7 |
| 20260508085503 | 52 | 252 | 5.0 | 9.0 | 0.00 | 0.00 | 0.00 | 61 | 1012.5 |
| 20260508085003 | 52 | 206 | 2.0 | 8.0 | 0.00 | 0.00 | 0.00 | 62 | 1012.5 |
| 20260508084504 | 52 | 166 | 2.0 | 8.0 | 0.00 | 0.00 | 0.00 | 62 | 1012.5 |
| 20260508084003 | 52 | 294 | 2.0 | 9.0 | 0.00 | 0.00 | 0.00 | 62 | 1012.4 |
| 20260508083503 | 52 | 216 | 3.0 | 9.0 | 0.00 | 0.00 | 0.00 | 62 | 1012.4 |
| 20260508083033 | 52 | 248 | 2.0 | 10.0 | 0.00 | 0.00 | 0.00 | 63 | 1012.4 |
| 20260508082506 | 51 | 205 | 3.0 | 13.0 | 0.00 | 0.00 | 0.00 | 63 | 1012.3 |
| 20260508082004 | 51 | 192 | 5.0 | 13.0 | 0.00 | 0.00 | 0.00 | 63 | 1012.3 |
| 20260508081503 | 51 | 255 | 3.0 | 8.0 | 0.00 | 0.00 | 0.00 | 65 | 1012.3 |
| 20260508081002 | 51 | 249 | 3.0 | 9.0 | 0.00 | 0.00 | 0.00 | 65 | 1012.2 |
| 20260508080502 | 51 | 234 | 3.0 | 9.0 | 0.00 | 0.00 | 0.00 | 64 | 1012.1 |
| 20260508080004 | 51 | 212 | 3.0 | 8.0 | 0.00 | 0.00 | 0.00 | 64 | 1012.1 |
| 20260508075503 | 51 | 191 | 3.0 | 7.0 | 0.00 | 0.00 | 0.00 | 65 | 1012.0 |
| 20260508075003 | 50 | 248 | 3.0 | 11.0 | 0.00 | 0.00 | 0.00 | 65 | 1011.8 |
| 20260508074504 | 50 | 214 | 3.0 | 11.0 | 0.00 | 0.00 | 0.00 | 66 | 1011.9 |
| 20260508074005 | 50 | 218 | 3.0 | 11.0 | 0.00 | 0.00 | 0.00 | 66 | 1011.8 |
| 20260508073503 | 50 | 214 | 4.0 | 11.0 | 0.00 | 0.00 | 0.00 | 67 | 1011.7 |
| 20260508073009 | 50 | 257 | 4.0 | 10.0 | 0.00 | 0.00 | 0.00 | 67 | 1011.7 |
| 20260508072505 | 50 | 273 | 4.0 | 11.0 | 0.00 | 0.00 | 0.00 | 69 | 1011.6 |
| 20260508072004 | 50 | 210 | 4.0 | 11.0 | 0.00 | 0.00 | 0.00 | 69 | 1011.5 |
| 20260508071508 | 49 | 252 | 3.0 | 9.0 | 0.00 | 0.00 | 0.00 | 70 | 1011.4 |
| 20260508071006 | 49 | 266 | 4.0 | 9.0 | 0.00 | 0.00 | 0.00 | 70 | 1011.4 |
| 20260508070508 | 49 | 224 | 4.0 | 10.0 | 0.00 | 0.00 | 0.00 | 70 | 1011.3 |
| 20260508070004 | 49 | 215 | 5.0 | 10.0 | 0.00 | 0.00 | 0.00 | 70 | 1011.3 |
| 20260508065501 | 49 | 239 | 6.0 | 10.0 | 0.00 | 0.00 | 0.00 | 71 | 1011.1 |
| 20260508065002 | 49 | 262 | 4.0 | 8.0 | 0.00 | 0.00 | 0.00 | 72 | 1011.1 |
| 20260508064506 | 49 | 191 | 2.0 | 5.0 | 0.00 | 0.00 | 0.00 | 73 | 1011.1 |
| 20260508064001 | 48 | 209 | 2.0 | 4.0 | 0.00 | 0.00 | 0.00 | 73 | 1011.1 |
| 20260508063503 | 48 | 258 | 1.0 | 4.0 | 0.00 | 0.00 | 0.00 | 73 | 1011.1 |
| 20260508063005 | 48 | 292 | 2.0 | 3.0 | 0.00 | 0.00 | 0.00 | 73 | 1011.1 |
| 20260508062505 | 48 | 190 | 1.0 | 3.0 | 0.00 | 0.00 | 0.00 | 73 | 1011.0 |
| 20260508062005 | 48 | 229 | 0.0 | 1.0 | 0.00 | 0.00 | 0.00 | 74 | 1010.9 |
| 20260508061509 | 48 | 221 | 0.0 | 2.0 | 0.00 | 0.00 | 0.00 | 74 | 1010.9 |
| 20260508061005 | 48 | 221 | 0.0 | 2.0 | 0.00 | 0.00 | 0.00 | 73 | 1010.8 |
| 20260508060506 | 48 | 288 | 0.0 | 2.0 | 0.00 | 0.00 | 0.00 | 73 | 1010.8 |
| 20260508060013 | 48 | 276 | 1.0 | 6.0 | 0.00 | 0.00 | 0.00 | 73 | 1010.8 |
| 20260508055507 | 48 | 236 | 1.0 | 6.0 | 0.00 | 0.00 | 0.00 | 73 | 1010.7 |
| 20260508055006 | 48 | 288 | 1.0 | 8.0 | 0.00 | 0.00 | 0.00 | 73 | 1010.6 |
| 20260508054517 | 48 | 273 | 3.0 | 8.0 | 0.00 | 0.00 | 0.00 | 73 | 1010.5 |
| 20260508054001 | 48 | 203 | 3.0 | 8.0 | 0.00 | 0.00 | 0.00 | 73 | 1010.5 |
| 20260508053502 | 48 | 248 | 3.0 | 8.0 | 0.00 | 0.00 | 0.00 | 74 | 1010.3 |
| 20260508053002 | 48 | 264 | 2.0 | 8.0 | 0.00 | 0.00 | 0.00 | 75 | 1010.2 |
| 20260508052504 | 48 | 268 | 3.0 | 7.0 | 0.00 | 0.00 | 0.00 | 75 | 1010.3 |
| 20260508052003 | 48 | 258 | 1.0 | 5.0 | 0.00 | 0.00 | 0.00 | 76 | 1010.3 |
| 20260508051005 | 48 | 226 | 1.0 | 4.0 | 0.00 | 0.00 | 0.00 | 76 | 1010.2 |
| 20260508050506 | 48 | 271 | 2.0 | 5.0 | 0.00 | 0.00 | 0.00 | 76 | 1010.2 |
| 20260508050010 | 48 | 236 | 2.0 | 5.0 | 0.00 | 0.00 | 0.00 | 76 | 1010.2 |
| 20260508045505 | 48 | 234 | 2.0 | 5.0 | 0.00 | 0.00 | 0.00 | 76 | 1010.2 |
| 20260508045005 | 48 | 259 | 2.0 | 5.0 | 0.00 | 0.00 | 0.00 | 76 | 1010.1 |
| 20260508044518 | 48 | 238 | 1.0 | 6.0 | 0.00 | 0.00 | 0.00 | 76 | 1010.1 |
| 20260508044006 | 48 | 235 | 1.0 | 6.0 | 0.00 | 0.00 | 0.00 | 76 | 1010.0 |
| 20260508043505 | 48 | 264 | 2.0 | 6.0 | 0.00 | 0.00 | 0.00 | 76 | 1009.9 |
| 20260508042512 | 48 | 280 | 2.0 | 6.0 | 0.00 | 0.00 | 0.00 | 76 | 1009.9 |
| 20260508042002 | 48 | 187 | 1.0 | 3.0 | 0.00 | 0.00 | 0.00 | 76 | 1009.9 |
| 20260508041506 | 49 | 233 | 1.0 | 3.0 | 0.00 | 0.00 | 0.00 | 75 | 1010.0 |
| 20260508041002 | 49 | 240 | 1.0 | 7.0 | 0.00 | 0.00 | 0.00 | 75 | 1009.9 |
| 20260508040503 | 49 | 243 | 2.0 | 7.0 | 0.00 | 0.00 | 0.00 | 75 | 1009.9 |
| 20260508034007 | 49 | 21 | 3.0 | 9.0 | 0.00 | 0.00 | 0.00 | 74 | 1009.7 |
| 20260508031504 | 50 | 236 | 2.0 | 8.0 | 0.00 | 0.00 | 0.00 | 72 | 1009.5 |
| 20260508024508 | 50 | 191 | 3.0 | 9.0 | 0.00 | 0.00 | 0.00 | 71 | 1009.4 |
| 20260508024003 | 51 | 239 | 4.0 | 11.0 | 0.00 | 0.00 | 0.00 | 70 | 1009.4 |
| 20260508023503 | 51 | 218 | 5.0 | 11.0 | 0.00 | 0.00 | 0.00 | 70 | 1009.4 |
| 20260508014503 | 51 | 252 | 3.0 | 7.0 | 0.00 | 0.00 | 0.00 | 68 | 1009.2 |
| 20260508011518 | 51 | 288 | 2.0 | 7.0 | 0.00 | 0.00 | 0.00 | 68 | 1009.1 |
| 20260508003502 | 51 | 214 | 3.0 | 9.0 | 0.00 | 0.00 | 0.00 | 67 | 1009.0 |
| 20260508000017 | 51 | 234 | 5.0 | 10.0 | 0.00 | 0.00 | 0.00 | 66 | 1008.8 |
| 20260507225508 | 50 | 250 | 3.0 | 9.0 | 0.00 | 0.00 | 0.00 | 65 | 1009.0 |
| 20260507220012 | 50 | 213 | 0.0 | 4.0 | 0.00 | 0.00 | 0.00 | 67 | 1009.3 |
| 20260507215504 | 50 | 208 | 0.0 | 3.0 | 0.00 | 0.00 | 0.00 | 66 | 1009.3 |
| 20260507215006 | 50 | 223 | 0.0 | 7.0 | 0.00 | 0.00 | 0.00 | 66 | 1009.4 |
| 20260507214502 | 51 | 211 | 2.0 | 7.0 | 0.00 | 0.00 | 0.00 | 65 | 1009.5 |
| 20260507214003 | 51 | 207 | 1.0 | 6.0 | 0.00 | 0.00 | 0.00 | 66 | 1009.5 |
| 20260507213504 | 51 | 257 | 1.0 | 6.0 | 0.00 | 0.00 | 0.00 | 66 | 1009.4 |
| 20260507213004 | 51 | 182 | 1.0 | 4.0 | 0.00 | 0.00 | 0.00 | 66 | 1009.3 |
| 20260507212503 | 51 | 193 | 1.0 | 4.0 | 0.00 | 0.00 | 0.00 | 67 | 1009.2 |
| 20260507212002 | 51 | 215 | 0.0 | 6.0 | 0.00 | 0.00 | 0.00 | 68 | 1009.0 |
| 20260507211502 | 51 | 196 | 2.0 | 6.0 | 0.00 | 0.00 | 0.00 | 68 | 1009.0 |
| 20260507211002 | 51 | 200 | 0.0 | 2.0 | 0.00 | 0.00 | 0.00 | 68 | 1009.2 |
| 20260507210502 | 51 | 203 | 0.0 | 6.0 | 0.00 | 0.00 | 0.00 | 68 | 1009.2 |
| 20260507210002 | 51 | 210 | 2.0 | 6.0 | 0.00 | 0.00 | 0.00 | 68 | 1009.2 |
| 20260507205502 | 51 | 207 | 1.0 | 4.0 | 0.00 | 0.00 | 0.00 | 69 | 1009.2 |
| 20260507205002 | 51 | 225 | 2.0 | 5.0 | 0.00 | 0.00 | 0.00 | 69 | 1009.2 |
| 20260507204503 | 51 | 232 | 2.0 | 5.0 | 0.00 | 0.00 | 0.00 | 69 | 1009.1 |
| 20260507204001 | 51 | 194 | 1.0 | 5.0 | 0.00 | 0.00 | 0.00 | 69 | 1009.1 |
| 20260507203505 | 52 | 179 | 1.0 | 4.0 | 0.00 | 0.00 | 0.00 | 68 | 1009.0 |
| 20260507203003 | 52 | 158 | 1.0 | 3.0 | 0.00 | 0.00 | 0.00 | 67 | 1009.0 |
| 20260507202502 | 52 | 269 | 0.0 | 5.0 | 0.00 | 0.00 | 0.00 | 67 | 1008.9 |
| 20260507202002 | 52 | 200 | 1.0 | 6.0 | 0.00 | 0.00 | 0.00 | 66 | 1008.9 |
| 20260507201503 | 52 | 20 | 2.0 | 6.0 | 0.00 | 0.00 | 0.00 | 66 | 1008.9 |
| 20260507201004 | 52 | 164 | 2.0 | 6.0 | 0.00 | 0.00 | 0.00 | 66 | 1008.8 |
| 20260507200502 | 52 | 222 | 2.0 | 4.0 | 0.00 | 0.00 | 0.00 | 66 | 1008.8 |
| 20260507200002 | 52 | 222 | 2.0 | 6.0 | 0.00 | 0.00 | 0.00 | 66 | 1008.8 |
| 20260507195502 | 52 | 222 | 2.0 | 6.0 | 0.00 | 0.00 | 0.00 | 66 | 1008.9 |
| 20260507195002 | 52 | 136 | 2.0 | 6.0 | 0.00 | 0.00 | 0.00 | 65 | 1008.8 |
| 20260507194503 | 52 | 216 | 2.0 | 7.0 | 0.00 | 0.00 | 0.00 | 65 | 1008.7 |
| 20260507194002 | 53 | 166 | 3.0 | 7.0 | 0.00 | 0.00 | 0.00 | 64 | 1008.5 |
| 20260507193502 | 53 | 225 | 3.0 | 9.0 | 0.00 | 0.00 | 0.00 | 64 | 1008.4 |
| 20260507193005 | 53 | 203 | 2.0 | 9.0 | 0.00 | 0.00 | 0.00 | 64 | 1008.6 |
| 20260507192001 | 54 | 275 | 2.0 | 8.0 | 0.00 | 0.00 | 0.00 | 64 | 1008.6 |
| 20260507191503 | 55 | 214 | 3.0 | 8.0 | 0.00 | 0.00 | 0.00 | 63 | 1008.5 |
| 20260507191003 | 55 | 221 | 2.0 | 9.0 | 0.00 | 0.00 | 0.00 | 63 | 1008.6 |
| 20260507190503 | 55 | 197 | 3.0 | 10.0 | 0.00 | 0.00 | 0.00 | 63 | 1008.7 |
| 20260507190008 | 55 | 213 | 4.0 | 10.0 | 0.00 | 0.00 | 0.00 | 63 | 1008.7 |
| 20260507185503 | 55 | 250 | 4.0 | 10.0 | 0.00 | 0.00 | 0.00 | 61 | 1008.7 |
| 20260507185002 | 55 | 207 | 1.0 | 9.0 | 0.00 | 0.00 | 0.00 | 62 | 1008.5 |
| 20260507184503 | 56 | 127 | 4.0 | 9.0 | 0.00 | 0.00 | 0.00 | 61 | 1008.5 |
| 20260507184001 | 56 | 162 | 3.0 | 8.0 | 0.00 | 0.00 | 0.00 | 61 | 1008.4 |
| 20260507183502 | 56 | 134 | 2.0 | 8.0 | 0.00 | 0.00 | 0.00 | 61 | 1008.5 |
| 20260507183008 | 56 | 181 | 3.0 | 8.0 | 0.00 | 0.00 | 0.00 | 61 | 1008.5 |
| 20260507182503 | 56 | 164 | 2.0 | 7.0 | 0.00 | 0.00 | 0.00 | 61 | 1008.5 |
| 20260507182002 | 56 | 211 | 2.0 | 7.0 | 0.00 | 0.00 | 0.00 | 60 | 1008.3 |
| 20260507181505 | 56 | 221 | 1.0 | 7.0 | 0.00 | 0.00 | 0.00 | 61 | 1008.3 |
| 20260507181003 | 56 | 154 | 1.0 | 7.0 | 0.00 | 0.00 | 0.00 | 60 | 1008.3 |
| 20260507180502 | 56 | 195 | 2.0 | 8.0 | 0.00 | 0.00 | 0.00 | 60 | 1008.2 |
| 20260507180006 | 57 | 132 | 1.0 | 9.0 | 0.00 | 0.00 | 0.00 | 60 | 1008.1 |
| 20260507175504 | 56 | 221 | 2.0 | 9.0 | 0.00 | 0.00 | 0.00 | 59 | 1008.1 |
| 20260507175003 | 57 | 206 | 2.0 | 6.0 | 0.00 | 0.00 | 0.00 | 59 | 1008.0 |
| 20260507174503 | 57 | 193 | 2.0 | 7.0 | 0.00 | 0.00 | 0.00 | 61 | 1008.1 |
| 20260507174003 | 57 | 255 | 2.0 | 8.0 | 0.00 | 0.00 | 0.00 | 60 | 1008.3 |